Santee, CA

12:03 PM PDT on September 26, 2017 (GMT -0700)
Gillespie

Weather History for KSEE - November, 2012

Change the Weather History Date:

Saturday, November 17, 2012

  Actual Average Record
Temperature  
Mean Temperature 58 °F -  
Max Temperature 64 °F 75 °F 86 °F (2002)
Min Temperature 53 °F 45 °F 35 °F (2015)
Degree Days  
Heating Degree Days 6    
Growing Degree Days 8 (Base 50)    
Moisture  
Dew Point 52 °F    
Average Humidity 83    
Maximum Humidity 100    
Minimum Humidity 68    
Precipitation  
Precipitation 0.00 in - - ()
Sea Level Pressure  
Sea Level Pressure 30.09 in    
Wind  
Wind Speed 1 mph (WNW)    
Max Wind Speed 7 mph    
Max Gust Speed -    
Visibility 11 miles    
Events      
Averages and records for this station are not official NWS values.
T = Trace of Precipitation, MM = Missing Value Source: NWS Daily Summary

Daily Weather History Graph

Daily Weather History Graph

Search for Another Location

Airport or City:

Trip Planner

Search our weather history database for the weather conditions in past years. The results will help you decide how hot, cold, wet, or windy it might be!

Date:

Astronomy

Nov. 17, 2012 Rise Set
Actual Time 6:20 AM PST 4:45 PM PST
Civil Twilight 5:54 AM PST 5:11 PM PST
Nautical Twilight 5:24 AM PST 5:41 PM PST
Astronomical Twilight 4:54 AM PST 6:10 PM PST
Moon 10:08 AM PST (11/17) 8:59 PM PST (11/17)
Length of Visible Light 11h 17m
Length of Day
10h 24m
Waxing Crescent, 21% of the Moon is Illuminated
Nov 17
Waxing Crescent
Nov 20
First Quarter
Nov 28
Full
Dec 6
Last Quarter
Dec 13
New

Hourly Weather History & Observations

Time (PST) Temp. Dew Point Humidity Pressure Visibility Wind Dir Wind Speed Gust Speed Precip Events Conditions
12:15 AM 57.2 °F 50.0 °F 77% 30.10 in 10.0 mi Calm Calm - N/A   Overcast
12:35 AM 57.2 °F 50.0 °F 77% 30.09 in 10.0 mi West 3.5 mph - N/A   Overcast
12:55 AM 57.2 °F 50.0 °F 77% 30.09 in 10.0 mi Calm Calm - N/A   Mostly Cloudy
1:15 AM 57.2 °F 50.0 °F 77% 30.09 in 10.0 mi Calm Calm - N/A   Mostly Cloudy
1:35 AM 57.2 °F 48.2 °F 72% 30.08 in 10.0 mi Calm Calm - N/A   Mostly Cloudy
1:55 AM 55.4 °F 50.0 °F 82% 30.09 in 10.0 mi West 3.5 mph - N/A   Scattered Clouds
2:15 AM 57.2 °F 50.0 °F 77% 30.08 in 10.0 mi North - - N/A   Mostly Cloudy
2:35 AM 55.4 °F 50.0 °F 82% 30.08 in 10.0 mi Calm Calm - N/A   Scattered Clouds
2:55 AM 55.4 °F 50.0 °F 82% 30.08 in 10.0 mi Calm Calm - N/A   Clear
3:15 AM 53.6 °F 48.2 °F 82% 30.08 in 10.0 mi Calm Calm - N/A   Scattered Clouds
3:35 AM 53.6 °F 48.2 °F 82% 30.08 in 10.0 mi Calm Calm - N/A   Mostly Cloudy
3:55 AM 53.6 °F 50.0 °F 88% 30.08 in 10.0 mi Calm Calm - N/A   Mostly Cloudy
4:15 AM 53.6 °F 50.0 °F 88% 30.08 in 10.0 mi Calm Calm - N/A   Mostly Cloudy
4:35 AM 55.4 °F 50.0 °F 82% 30.08 in 10.0 mi Calm Calm - N/A   Scattered Clouds
4:55 AM 53.6 °F 48.2 °F 82% 30.08 in 10.0 mi Calm Calm - N/A   Mostly Cloudy
5:15 AM 55.4 °F 50.0 °F 82% 30.08 in 10.0 mi Calm Calm - N/A   Overcast
7:47 AM 57.2 °F 51.8 °F 82% 30.11 in 20.0 mi Calm Calm - N/A   Mostly Cloudy
8:47 AM 62.6 °F 51.8 °F 68% 30.12 in 20.0 mi Calm Calm - N/A   Mostly Cloudy
4:55 PM 64.4 °F 55.4 °F 73% 30.07 in 12.0 mi Variable 6.9 mph - N/A   Scattered Clouds
5:55 PM 62.6 °F 55.4 °F 77% 30.07 in 12.0 mi Variable 6.9 mph - N/A   Scattered Clouds
6:47 PM 62.6 °F 57.2 °F 82% 30.08 in 12.0 mi Calm Calm - N/A   Scattered Clouds
8:15 PM 60.8 °F 55.4 °F 82% 30.11 in 10.0 mi Calm Calm - N/A   Overcast
8:35 PM 60.8 °F 55.4 °F 82% 30.11 in 10.0 mi West 4.6 mph - N/A   Overcast
8:55 PM 59.0 °F 55.4 °F 88% 30.12 in 10.0 mi West 4.6 mph - N/A   Overcast
9:15 PM 59.0 °F 55.4 °F 88% 30.12 in 9.0 mi Calm Calm - N/A   Overcast
9:35 PM 60.8 °F 55.4 °F 82% 30.12 in 10.0 mi Calm Calm - N/A   Light Drizzle
9:55 PM 59.0 °F 55.4 °F 88% 30.01 in 7.0 mi Calm Calm - N/A   Scattered Clouds
10:15 PM 60.8 °F 55.4 °F 82% 30.12 in 10.0 mi Calm Calm - N/A   Overcast
10:35 PM 59.0 °F 55.4 °F 88% 30.12 in 10.0 mi Calm Calm - N/A   Mostly Cloudy
10:55 PM 57.2 °F 55.4 °F 94% 30.12 in 10.0 mi WNW 4.6 mph - N/A   Partly Cloudy
11:15 PM 57.2 °F 55.4 °F 94% 30.12 in 10.0 mi NW 3.5 mph - N/A   Clear
11:35 PM 57.2 °F 55.4 °F 94% 30.12 in 10.0 mi Calm Calm - N/A   Clear
11:55 PM 55.4 °F 55.4 °F 100% 30.12 in 10.0 mi Calm Calm - N/A   Clear